sat.trackr.live / text

‹ back to catalog

STARLINK-34021

NORAD 63940 · 2025-098Q

PAYLOAD ACTIVE UNKNOWN

§ Identity

Operator
Country
US
Launch date
2025-05-13
Launch site
AFWTR
Launch vehicle
Mass (kg)
RCS (m²)

Purposes: comms

External: N2YO · Heavens-Above · Gunter

§ Orbital elements

Epoch: 2026-05-25T02:29:44.590848Z

Period
96.11 min
Inclination
70.0000°
Eccentricity
0.0003502
Mean motion
14.98336107 rev/d
Perigee alt
569.6 km
Apogee alt
574.5 km
Semi-major
6,950.2 km
B*
-1.3292e-4
RAAN
81.9810°
Arg perigee
255.8133°
Mean anomaly
104.2637°
Rev number
5,799

§ Raw data

STARLINK-340211 63940U 25098Q   26145.10398832 -.00001679  00000+0 -13292-3 0  99922 63940  70.0000  81.9810 0003502 255.8133 104.2637 14.98336107 57990

JSON: /api/v1/satellites/63940 · /tle

For live sub-satellite position, see the globe view (requires WebGL).

§ Visibility from observer

Set your observer location to see the next 7 days of passes ≥ 10°. The values pass through the URL so the page stays shareable.

No JS? Fill the form by hand. The geolocation button needs JavaScript.